sat.trackr.live / text

‹ back to catalog

HUNITY

NORAD 66670 · 2025-276E

PAYLOAD ACTIVE UNKNOWN

§ Identity

Operator
Country
HUN
Launch date
2025-11-28
Launch site
AFWTR
Launch vehicle
Mass (kg)
RCS (m²)

External: N2YO · Heavens-Above · Gunter

§ Orbital elements

Epoch: 2026-09-20T11:02:04.629120Z

Period
94.02 min
Inclination
97.3982°
Eccentricity
0.0005922
Mean motion
15.31580163 rev/d
Perigee alt
467.0 km
Apogee alt
475.2 km
Semi-major
6,849.2 km
B*
6.9985e-4
RAAN
337.1968°
Arg perigee
45.3159°
Mean anomaly
314.8564°
Rev number
4,504

§ Raw data

HUNITY1 66670U 25276E   26263.45977580  .00021311  00000+0  69985-3 0  99982 66670  97.3982 337.1968 0005922  45.3159 314.8564 15.31580163 45044

JSON: /api/v1/satellites/66670 · /tle

For live sub-satellite position, see the globe view (requires WebGL).

§ Visibility from observer

Set your observer location to see the next 7 days of passes ≥ 10°. The values pass through the URL so the page stays shareable.

No JS? Fill the form by hand. The geolocation button needs JavaScript.

§ Radio — SatNOGS DB

ModeDescriptionDownlinkUplink
GMSK 12k5 GMSK TLM 437.390 MHz

1 transmitter · refreshed weekly from db.satnogs.org